{"data":{"norad_id":60032,"intl_designator":"2024-111S","name":"STARLINK-32017","alt_names":[],"object_type":"PAYLOAD","status":"ACTIVE","operator":null,"country":"US","launch_date":"2024-06-08","launch_site_code":"AFETR","launch_vehicle":null,"mission":null,"orbit_class":"UNKNOWN","rcs_meters":null,"size_class":null,"mass_kg":null,"dimensions":null,"purposes":["comms"],"wikipedia_slug":null,"has_3d_model":false,"image_url":null,"decayed_at":null,"tle_current":{"epoch":"2026-05-25T02:43:02.627040Z","epoch_age_seconds":72112,"freshness":"FRESH","line1":"1 60032U 24111S   26145.11322485  .00000491  00000+0  28706-4 0  9994","line2":"2 60032  53.1604  80.7109 0001265  89.6599 270.4547 15.30194940110734","mean_motion":15.3019494,"eccentricity":0.0001265,"inclination_deg":53.1604,"raan_deg":80.7109,"arg_perigee_deg":89.6599,"mean_anomaly_deg":270.4547,"bstar":2.8706e-5,"rev_number":11073,"period_min":94.10565689101,"perigee_km":474.36322676091,"apogee_km":476.09712865687,"semimajor_km":6853.3671777089,"source":"CELESTRAK","updated_at":"2026-05-25T13:38:19.134085Z"}}}